Regional Weather Roundup
Issued by NWS

Home | Current Version | Previous Version | Graphics & Text | Print | Product List | Glossary On
Versions: 1 2 3 4 5 6 7 8 9 10 11 12 13 14 15 16 17 18 19 20 21 22 23 24 25 26 27 28 29 30 31 32 33 34 35 36 37 38 39 40 41 42 43 44 45 46 47 48 49 50
000
ASUS43 KLMK 050710
RWRKY
KENTUCKY REGIONAL WEATHER ROUNDUP
NATIONAL WEATHER SERVICE LOUISVILLE KY
300 AM EDT SAT SEP 05 2015

NOTE "FAIR" INDICATES FEW OR NO CLOUDS BELOW 12,000 FEET
WITH NO SIGNIFICANT WEATHER AND/OR OBSTRUCTIONS TO VISIBILITY.

KYZ001>023-026-027-061>063-070>075-050800-
WESTERN AND SOUTH CENTRAL KENTUCKY

CITY           SKY/WX    TMP DP  RH WIND       PRES   REMARKS
PADUCAH        CLEAR     70  67  90 CALM      30.03S FOG
HENDERSON      CLEAR     68  66  94 E3        30.04R
OWENSBORO      CLEAR     76  67  73 E8        30.05F
HOPKINSVILLE   CLEAR     74  67  80 CALM      30.04S
BOWLING GREEN  CLEAR     70  66  87 NE3       30.06S
GLASGOW        CLEAR     71  66  85 NE7       30.07S
$$

KYZ024-025-028>034-038-045-046-053-050800-
NORTH CENTRAL KENTUCKY

CITY           SKY/WX    TMP DP  RH WIND       PRES   REMARKS
LOUISVILLE/SDF MOCLDY    75  63  66 SE3       30.07S
LOUISVILLE/LOU CLEAR     73  64  73 CALM      30.08S
FORT KNOX      CLEAR     72  64  76 E5        30.06F
$$

KYZ035>037-039>044-047>052-055>060-089>105-050800-
NORTHEAST KENTUCKY

CITY           SKY/WX    TMP DP  RH WIND       PRES   REMARKS
LEXINGTON      PTCLDY    69  62  78 S5        30.09S
COVINGTON      PTCLDY    67  64  90 CALM      30.08F
FRANKFORT      CLEAR     70  63  78 CALM      30.08S
$$

KYZ054-064>069-076>088-106>120-050800-
SOUTHEAST KENTUCKY

CITY           SKY/WX    TMP DP  RH WIND       PRES   REMARKS
JACKSON        CLEAR     70  64  81 CALM      30.12F
LONDON         CLEAR     72  65  78 N6        30.11S
SOMERSET       PTCLDY    70  64  83 CALM      30.10F
MIDDLESBORO    CLEAR     67  66  97 CALM      30.11S
MONTICELLO     SUNNY     71  71 100 CALM      30.12S FOG
$$



USA.gov is the U.S. government's official web portal to all federal, state and local government web resources and services.